Theta_e
341 341 342 341 341 341 340 339 340 340 340 339 340 341 339 339 340 338 340 340 341 340 339 340 341 342 341 340 340 341 341 341 342 342 342 344 344 340 340 341 341 340 338 337 337 335 334 333 333 332 334 332 331 330 330 331 330 329 330 329 328 329 329 328 327 327 328 328 328 327 328 327 327 326 327 327 327 326 326 326 326 326 327 327 328
341 341 340 340 341 341 340 340 339 340 341 340 340 341 340 339 341 340 337 340 340 339 340 341 338 340 340 340 340 341 342 341 341 341 342 345 346 340 340 341 341 340 340 338 337 335 334 333 333 333 333 333 332 332 332 332 331 330 330 330 330 329 329 327 327 328 328 329 328 327 327 327 326 326 326 327 326 326 326 326 326 326 326 326 327
341 341 341 340 340 340 340 340 339 339 341 340 340 340 341 341 340 340 340 340 338 338 340 339 340 338 339 339 340 342 341 341 341 341 343 345 344 342 338 341 341 341 340 339 338 336 335 335 334 333 333 333 333 334 333 332 330 330 329 329 329 328 328 328 327 327 328 328 328 326 326 327 327 327 326 326 326 326 326 326 326 326 326 326 326
341 340 339 339 340 340 341 340 339 339 340 341 339 339 339 338 337 337 337 336 337 338 339 340 338 337 338 338 339 338 338 339 338 339 342 344 344 342 341 340 339 339 339 339 339 338 336 336 335 335 335 335 335 334 333 333 332 331 329 328 328 328 328 328 328 328 327 328 327 327 328 327 327 327 326 326 326 326 326 326 326 326 326 325 325
340 340 339 339 339 339 338 339 339 340 339 339 339 338 338 337 336 336 336 336 336 337 337 339 337 336 337 336 339 336 338 337 339 339 342 343 343 343 342 340 339 340 339 339 338 338 337 336 335 335 336 336 336 335 334 334 333 332 330 330 329 328 327 327 327 327 327 327 327 327 327 327 327 326 326 326 325 326 325 325 324 324 325 324 324
340 340 339 339 339 338 338 338 338 338 338 338 338 338 337 337 336 336 335 335 334 335 336 335 335 335 335 335 337 337 337 337 338 339 341 342 344 342 342 341 339 339 338 339 339 339 338 338 336 336 335 336 336 336 335 334 334 332 331 330 329 329 329 328 327 327 327 326 327 327 327 327 327 326 326 326 325 325 325 325 324 324 324 324 324
341 341 340 339 338 337 337 337 337 338 337 337 337 336 336 335 335 335 335 334 334 333 333 333 333 332 333 336 334 336 338 337 338 340 341 342 343 341 342 341 341 339 339 339 339 339 337 340 337 335 335 335 335 335 336 335 335 333 331 330 329 329 328 328 328 328 328 328 327 327 327 326 326 326 325 325 325 325 325 325 325 323 324 324 324
341 341 340 340 338 338 338 338 337 337 336 335 335 335 335 335 334 335 333 332 332 331 332 331 332 332 333 335 336 337 336 337 337 337 339 340 340 339 338 339 339 339 340 342 340 337 338 339 339 339 338 336 335 335 335 335 335 334 332 332 331 329 329 329 328 328 327 327 327 326 326 326 325 325 325 325 325 325 324 325 325 325 324 324 323
340 340 341 340 339 339 338 338 337 337 336 335 335 335 335 334 334 334 335 332 331 330 331 331 331 332 332 333 335 335 336 335 336 336 338 338 338 337 334 333 336 335 339 341 341 339 339 339 339 338 339 338 336 336 335 335 334 335 335 334 333 331 330 330 329 329 328 329 328 327 326 325 325 326 325 325 325 325 324 324 324 324 324 323 324
340 340 340 340 340 339 338 338 337 337 336 335 335 335 335 335 332 333 332 332 330 330 329 330 330 331 332 332 334 334 335 335 335 336 338 337 335 332 333 335 335 336 336 338 340 342 340 337 337 337 337 336 336 336 335 335 335 335 334 335 334 333 332 332 331 330 329 329 329 328 327 325 325 325 325 324 325 325 325 324 324 324 324 323 323
339 339 340 339 338 338 337 337 338 336 334 334 334 334 334 334 333 330 331 332 332 331 331 330 330 331 331 331 332 333 334 334 335 336 336 337 334 332 332 333 334 335 336 337 340 340 341 341 338 338 338 335 336 337 336 335 335 335 335 335 333 334 333 333 334 332 331 330 330 329 328 327 326 327 325 325 324 325 325 324 324 324 323 323 323
338 339 340 338 337 337 336 336 336 336 334 333 333 333 333 332 333 331 329 330 331 330 332 330 330 330 330 331 332 332 332 333 333 333 333 334 336 335 333 334 336 336 337 337 339 339 340 340 339 338 339 334 332 333 334 334 335 335 335 335 335 335 334 332 332 333 333 332 330 330 329 328 328 328 326 325 325 325 325 324 324 324 323 323 323
337 337 339 337 337 337 336 335 336 335 335 334 334 334 334 334 332 332 330 328 329 331 331 331 328 326 329 329 329 331 332 332 331 331 332 333 336 336 336 337 337 335 337 338 337 338 338 338 339 339 337 335 334 331 330 331 332 334 335 335 334 334 333 333 332 332 332 332 333 332 331 330 329 328 328 327 327 326 326 326 324 324 323 323 323
338 338 338 338 336 336 336 336 334 334 334 335 334 334 334 333 332 329 331 329 327 330 331 330 326 324 323 323 325 329 331 331 330 331 332 333 334 333 333 334 334 335 337 336 336 336 336 336 337 337 335 335 335 335 335 335 334 331 332 333 334 334 334 333 333 332 331 332 332 332 331 331 330 329 329 329 329 328 327 326 326 325 324 323 323
339 339 338 338 337 336 336 335 335 335 333 332 333 333 334 333 333 330 326 329 329 331 330 332 326 326 327 323 320 321 324 327 328 329 332 335 334 332 332 334 333 334 335 335 333 334 334 335 334 334 334 334 334 334 334 334 332 329 330 331 334 335 335 333 334 335 332 333 332 332 331 331 331 331 331 331 331 330 329 328 327 326 325 324 323
338 338 338 338 338 337 336 336 336 336 335 334 333 333 334 333 333 332 331 326 326 327 331 332 330 326 321 322 320 321 316 318 321 328 333 333 332 332 333 332 332 331 331 331 332 333 333 332 331 331 331 331 331 332 332 334 330 330 329 330 333 334 335 335 335 335 334 331 332 332 330 330 331 331 330 330 330 330 331 330 330 328 326 326 325
338 338 337 338 338 337 337 336 336 335 335 335 335 335 334 334 333 332 331 329 326 327 328 332 331 332 326 320 318 317 318 320 322 323 330 329 329 330 329 329 330 330 330 329 330 330 330 328 327 326 327 328 329 331 333 333 333 333 331 329 331 334 334 334 334 335 335 333 332 331 330 330 330 329 329 329 329 329 329 330 330 330 329 328 327
338 338 337 337 337 337 337 336 336 336 335 336 337 335 333 334 334 334 332 333 330 327 326 330 331 331 330 330 329 322 320 321 320 314 328 329 327 327 330 331 330 329 329 328 328 327 326 324 324 324 326 327 328 329 330 330 331 332 332 328 325 330 332 334 335 336 336 335 334 333 332 331 331 330 330 329 329 329 330 330 330 330 331 330 330
338 338 337 338 337 337 337 337 336 336 336 336 336 335 334 334 334 334 334 333 331 328 327 328 328 329 329 330 332 330 329 322 319 320 316 322 327 326 328 330 328 327 326 325 326 325 324 324 324 324 325 327 328 329 330 328 325 324 324 323 322 320 321 326 335 338 335 337 338 335 334 332 330 328 328 328 329 329 330 331 331 331 331 330 331
338 337 338 337 337 336 336 336 335 336 335 335 336 336 336 334 335 335 335 334 333 331 330 330 328 327 329 331 331 331 330 328 326 323 320 316 317 327 328 325 325 325 324 323 323 323 323 323 322 323 325 325 326 326 328 330 329 327 325 321 320 319 318 318 318 322 330 332 331 330 329 327 327 325 324 324 324 324 325 327 327 328 329 330 331
336 337 338 337 337 337 337 336 336 335 335 334 336 336 335 334 333 334 334 334 334 335 333 331 331 329 328 329 330 328 328 329 328 328 321 318 317 318 317 324 323 322 321 321 320 319 320 321 321 324 327 327 327 326 327 328 327 325 322 318 318 318 318 316 314 314 316 326 326 326 326 324 324 322 321 321 320 321 321 322 323 325 326 326 328
333 335 337 337 337 337 336 336 337 336 334 334 336 336 336 334 334 336 336 336 335 335 334 334 333 333 331 330 328 327 326 326 326 325 324 324 317 317 319 320 316 318 320 319 318 318 318 320 322 323 325 326 325 324 325 325 325 323 318 315 317 316 315 314 310 313 314 317 322 321 321 321 321 320 319 319 319 318 318 319 321 322 323 325 324
331 333 336 336 337 336 336 336 337 336 334 334 336 336 337 337 335 335 336 336 335 335 334 334 334 333 331 330 329 328 326 324 324 326 324 321 319 319 320 319 318 317 316 319 320 320 320 321 320 321 323 322 320 320 320 319 317 316 315 313 314 314 313 310 308 310 314 317 319 319 319 318 318 318 316 316 316 316 316 316 317 318 321 322 322
331 331 333 335 335 335 335 335 335 336 335 336 336 335 336 335 335 336 334 334 335 334 334 333 333 333 332 331 331 331 329 329 328 329 326 323 321 318 317 318 318 318 317 318 318 317 317 317 317 318 318 317 317 318 318 316 315 314 313 313 312 310 311 310 307 307 308 314 317 318 319 318 317 316 316 315 315 314 314 314 314 315 316 319 321
329 331 333 334 334 334 334 334 334 335 335 334 335 334 334 334 334 333 334 333 333 334 333 334 333 332 331 331 330 329 329 331 331 329 329 326 323 318 319 320 316 315 315 316 313 315 315 315 316 315 314 315 315 315 316 315 313 314 311 311 311 310 309 310 311 308 306 307 311 316 317 317 317 316 315 315 313 312 312 311 309 308 309 310 315
329 332 332 333 333 334 335 335 334 333 332 333 333 333 334 332 333 333 333 333 333 334 334 334 334 335 334 330 329 329 330 331 331 330 327 325 322 320 318 318 318 314 314 313 313 311 312 314 315 315 314 314 314 315 316 311 312 312 311 310 309 307 307 308 309 309 306 305 306 309 311 314 314 314 313 312 310 309 308 306 307 307 306 307 309
329 330 330 332 332 332 333 332 331 331 330 330 329 330 330 329 330 331 330 330 331 332 333 333 332 332 333 332 331 331 330 330 331 330 328 328 325 323 320 315 315 314 312 313 314 312 311 312 313 313 314 316 316 316 314 313 311 311 312 312 311 307 307 308 309 309 307 304 303 304 305 306 307 308 308 308 307 307 309 307 307 306 307 308 309
329 329 329 331 331 331 330 329 328 327 326 326 326 326 327 328 327 329 326 324 328 328 329 330 331 331 332 333 331 330 331 330 331 330 329 329 328 326 324 319 313 310 313 312 312 310 312 310 312 313 313 313 314 316 313 311 309 310 313 312 311 309 304 305 306 307 306 305 305 304 303 303 304 306 307 309 309 309 308 307 307 306 306 309 309
328 328 328 329 331 330 328 327 326 326 326 326 326 325 326 326 326 325 324 324 325 324 325 327 327 329 330 332 331 331 330 332 331 331 331 330 329 327 325 321 318 313 311 311 312 310 310 312 308 310 313 312 313 314 312 311 309 311 312 313 313 310 306 304 303 303 302 302 303 303 304 305 306 308 309 309 309 308 308 306 306 306 307 309 309
327 326 328 328 328 327 328 326 325 325 326 325 324 324 324 323 323 323 322 324 323 323 323 324 326 328 329 329 331 329 330 330 330 331 330 330 327 326 324 324 321 314 313 310 311 314 311 313 313 308 311 311 312 314 313 311 312 311 310 311 312 310 304 304 302 301 303 303 302 301 302 304 306 308 308 308 307 307 306 306 306 307 307 306 307
325 326 327 327 327 326 327 325 324 323 324 325 324 324 324 322 323 321 322 324 322 322 322 323 323 326 328 329 330 329 330 331 330 330 330 329 327 325 323 323 323 323 317 313 309 314 316 310 312 312 310 310 310 312 312 311 310 310 312 313 309 308 307 306 304 304 304 304 302 302 304 304 305 306 306 306 306 307 305 306 307 307 306 304 304
325 326 326 325 325 325 324 324 323 323 323 323 324 323 324 324 323 321 322 324 321 321 320 321 320 326 327 328 328 329 329 329 329 329 328 328 328 324 324 322 322 325 320 315 312 311 317 315 313 311 312 312 311 310 311 311 312 311 312 311 311 310 308 307 306 305 305 303 302 304 307 305 306 307 306 305 304 305 304 301 304 305 303 303 303
324 324 325 325 324 324 322 322 322 323 322 323 324 324 323 322 323 322 321 321 319 321 321 320 320 324 325 326 326 327 329 329 329 329 327 327 327 327 325 322 321 323 319 316 313 314 316 319 316 310 312 312 309 311 310 312 313 313 311 313 313 312 310 310 309 304 303 303 302 302 301 301 302 304 300 300 301 302 302 301 302 304 303 300 300
324 324 324 324 324 323 322 321 322 321 322 322 323 323 321 322 322 323 323 320 319 320 323 319 320 322 324 324 323 325 327 328 329 326 326 325 324 323 323 323 321 321 322 318 315 312 312 316 314 315 313 313 308 312 312 312 313 314 311 312 312 312 312 313 312 310 300 302 302 301 302 301 301 301 300 300 300 300 301 300 299 298 301 299 298
324 324 324 323 323 322 321 321 320 321 321 322 323 323 322 321 320 321 323 322 320 320 320 320 317 320 321 322 322 323 324 327 327 327 327 325 324 322 324 324 323 322 320 318 317 314 313 313 316 311 312 312 313 310 312 314 315 314 313 313 312 310 310 314 312 308 301 302 301 301 301 300 300 300 299 300 300 299 300 301 300 299 298 298 297
322 323 324 322 322 322 321 320 320 320 321 322 321 321 320 320 320 319 320 321 321 321 320 319 319 321 321 320 321 322 324 324 323 324 324 325 325 324 325 326 325 323 323 321 320 319 315 313 313 311 313 313 313 315 313 315 315 314 315 316 314 312 312 311 311 309 304 301 301 301 302 301 300 299 298 299 300 300 299 299 300 299 299 299 298
322 322 322 323 322 321 322 319 319 320 320 320 320 321 322 323 321 321 320 320 321 320 321 321 321 322 321 321 320 320 321 321 321 319 319 321 319 321 321 321 321 323 322 321 320 319 317 313 314 314 316 314 313 313 313 312 312 313 314 314 313 312 312 311 310 306 303 300 301 301 300 299 299 299 299 299 299 299 299 299 299 300 300 300 299
322 322 322 322 322 321 320 319 319 319 320 320 319 319 320 322 323 323 322 321 321 320 320 320 320 321 322 321 322 323 322 322 322 323 321 320 317 319 318 317 316 319 320 320 319 318 318 315 315 313 314 312 312 313 313 313 312 310 311 312 313 313 311 310 309 307 308 308 310 307 303 302 299 298 299 299 298 298 298 299 299 300 299 299 298
321 320 321 321 322 321 321 321 320 320 319 320 321 322 321 321 322 321 322 322 322 322 321 319 321 321 321 321 322 323 321 321 322 322 323 322 320 319 319 320 317 317 318 318 316 316 317 317 315 314 313 314 314 311 311 313 313 312 311 310 310 311 312 311 308 307 309 306 302 299 302 302 302 303 299 298 299 299 299 299 300 299 299 298 297
321 320 320 321 322 321 323 322 322 323 322 321 321 322 321 323 323 323 323 323 322 322 323 321 322 321 322 322 322 322 322 322 323 323 324 322 322 321 320 318 318 317 317 317 316 315 315 315 313 313 313 312 312 315 312 311 310 310 311 311 309 309 311 312 311 308 308 310 308 304 301 301 301 299 298 299 299 299 300 300 300 300 298 297 297
321 321 322 322 321 320 320 322 321 323 323 323 323 323 323 322 323 323 323 321 322 321 322 322 322 322 322 323 323 323 325 323 313 316 319 319 322 321 321 320 318 317 316 316 315 314 314 314 313 314 312 312 311 311 310 309 309 309 312 314 312 311 310 308 307 309 307 308 308 307 306 308 306 307 306 307 305 303 301 300 301 298 297 297 296
319 320 320 320 320 321 320 320 322 323 324 325 317 307 310 322 323 321 323 324 323 322 322 323 324 323 323 324 325 321 315 313 309 303 302 304 310 319 323 321 319 317 316 314 313 313 312 310 310 311 310 310 311 313 311 312 313 315 313 311 311 310 310 309 308 308 308 309 308 307 305 307 307 305 306 305 305 308 307 307 304 302 299 296 297
320 318 318 318 319 321 320 321 322 323 324 320 301 301 300 302 318 324 323 324 324 323 323 323 322 324 326 324 326 321 318 315 315 300 299 298 300 300 304 310 315 321 319 316 316 316 312 311 312 312 310 310 313 314 314 314 314 312 311 311 310 309 308 306 304 306 307 309 308 307 305 306 306 304 304 304 305 306 305 305 297 297 297 296 296
315 316 316 316 318 319 319 319 321 322 322 299 294 297 299 298 302 320 323 323 324 324 324 324 324 325 326 327 326 326 327 327 326 320 307 299 297 298 298 298 299 300 303 318 320 317 317 314 313 313 312 312 312 316 313 314 312 311 311 310 310 308 308 307 308 307 307 309 307 306 306 305 305 305 304 303 304 306 304 300 295 296 296 296 296
316 315 316 317 318 319 321 320 321 321 315 295 293 293 294 297 295 305 321 322 322 323 324 324 324 325 326 326 326 326 325 318 319 323 322 318 300 297 298 297 297 296 296 295 297 319 321 317 316 316 315 314 314 315 316 315 315 311 311 310 310 310 311 309 310 308 304 308 307 305 304 304 304 304 304 304 305 305 303 297 296 296 296 296 296
311 314 315 315 316 317 319 321 320 315 307 296 293 293 293 291 291 301 320 322 323 322 322 323 324 324 325 325 324 325 327 325 325 325 323 322 320 316 315 316 318 310 295 295 295 291 303 318 319 317 319 320 315 317 319 317 314 311 311 310 312 310 311 310 311 308 306 306 306 305 303 304 304 304 303 305 304 305 305 300 295 296 296 296 296
308 309 310 311 311 312 313 315 316 310 302 292 292 293 293 293 292 298 320 320 322 322 323 323 322 323 323 323 323 323 325 325 325 322 324 323 323 322 320 320 319 319 319 319 318 319 317 317 319 320 321 321 319 318 317 315 314 316 314 313 312 310 307 305 306 305 304 304 306 305 301 304 304 302 303 304 303 303 305 298 295 296 296 296 295
306 307 306 307 307 307 309 312 312 309 303 292 292 293 293 293 295 313 317 320 322 322 323 323 323 323 323 323 323 323 324 324 315 302 308 320 322 321 320 320 319 318 318 302 294 296 307 315 317 318 320 321 308 318 317 314 313 310 308 309 309 305 302 302 302 301 302 303 304 303 302 302 303 301 302 303 303 302 303 304 296 295 297 296 295
302 303 303 303 303 304 305 305 307 307 304 295 291 292 292 292 302 315 315 318 320 321 323 323 323 323 323 323 323 323 324 324 311 299 297 302 319 319 319 320 319 317 317 311 295 291 291 293 294 294 295 294 293 294 295 297 307 308 309 306 303 303 302 303 303 301 302 300 301 303 302 300 302 301 300 301 301 300 301 302 303 296 295 296 295
303 303 304 303 302 302 302 302 303 304 304 297 291 292 292 292 298 311 312 315 317 318 320 322 322 322 321 312 315 321 322 323 300 297 293 304 319 320 320 319 318 316 316 313 310 304 292 292 291 291 291 292 292 292 293 293 295 302 309 305 303 303 301 300 300 301 299 298 300 301 301 300 300 300 298 300 300 301 300 301 301 301 296 295 295
300 301 301 302 301 301 302 302 300 303 303 300 292 291 292 292 299 309 310 313 314 315 315 317 320 321 321 315 307 311 315 312 294 295 292 302 319 319 319 319 317 317 318 315 311 309 308 307 304 303 299 297 301 302 299 293 295 300 307 303 301 301 300 303 303 300 296 298 298 300 297 297 296 298 298 297 296 299 300 300 300 301 301 300 300
Wind_Speed
6 6 6 6 6 6 5 5 5 4 4 3 2 2 1 1 1 2 2 2 2 2 1 2 1 1 2 4 4 5 5 5 5 5 5 5 5 7 6 6 8 8 9 9 10 9 9 8 8 8 9 9 9 9 9 8 8 8 8 9 8 8 8 9 8 9 10 10 10 10 9 9 9 10 11 11 11 10 10 11 11 11 10 11 11
6 6 6 6 5 5 5 5 4 4 3 4 3 2 2 1 1 1 2 2 2 2 1 1 2 2 1 3 3 3 4 4 5 5 5 4 4 7 6 6 7 8 7 8 9 9 9 8 8 8 8 9 8 8 8 8 7 7 8 8 8 8 8 7 8 9 9 9 10 9 10 10 10 10 10 11 12 11 10 11 11 12 11 11 12
6 5 5 5 5 5 5 4 4 3 3 3 2 2 1 1 1 1 1 2 3 2 1 1 1 2 2 2 3 3 3 3 4 5 5 5 4 5 7 8 6 6 8 7 8 9 8 8 8 7 8 8 7 7 7 7 6 6 7 7 7 7 8 8 7 7 8 8 8 8 9 10 9 10 10 10 10 11 10 11 11 12 12 11 10
6 6 5 5 5 4 4 4 4 3 3 3 3 2 2 2 2 2 2 2 2 2 2 2 2 2 2 3 2 4 4 5 5 5 5 5 4 4 5 6 7 5 8 7 7 6 6 7 7 7 7 7 7 6 6 6 6 6 6 6 6 7 7 7 7 7 7 7 7 8 9 8 9 9 9 9 9 10 10 10 10 11 10 11 10
5 6 6 5 4 4 4 4 3 3 3 3 3 2 2 2 2 2 2 3 2 2 2 2 3 3 2 3 3 4 4 5 5 5 5 5 4 4 5 6 6 7 8 9 7 6 5 5 6 6 6 5 6 5 6 6 6 6 6 6 6 6 6 6 6 6 6 6 7 7 8 8 8 8 8 8 8 9 9 8 8 10 10 11 10
5 6 5 4 4 4 4 4 3 3 3 3 2 2 2 2 2 2 3 3 3 2 2 3 3 3 3 2 3 3 4 4 5 4 4 4 3 3 3 4 3 4 5 6 5 5 3 5 5 5 3 5 4 4 6 6 6 6 6 6 6 6 6 6 6 6 6 6 6 6 7 7 7 7 8 8 8 8 8 9 9 9 10 10 10
5 5 5 4 4 4 4 4 4 4 4 3 2 2 2 2 1 2 3 3 3 3 3 3 3 3 3 2 3 3 3 4 4 4 4 4 3 4 3 3 3 3 4 4 4 4 4 7 4 4 4 3 4 3 5 5 7 6 6 5 5 5 5 5 5 5 5 5 5 5 6 6 6 7 7 7 7 7 8 8 9 7 9 10 10
5 5 5 5 4 4 4 4 5 4 4 3 3 3 2 2 2 1 3 3 3 4 3 4 4 4 4 3 4 3 3 3 3 3 3 4 4 5 4 4 5 3 2 1 2 3 8 7 6 5 5 4 3 3 3 5 6 6 6 6 5 5 4 4 4 4 5 5 5 5 5 5 5 5 6 6 6 6 6 7 7 7 7 8 8
5 5 4 4 4 4 5 5 5 5 4 4 3 3 3 3 2 2 2 3 4 5 4 4 4 5 5 5 5 4 4 3 4 3 4 4 4 5 5 5 4 3 1 1 3 4 7 8 9 7 5 3 2 2 2 3 4 4 5 6 6 5 4 4 3 3 3 3 3 4 4 4 4 5 6 5 6 6 5 6 6 7 7 6 7
5 5 4 3 2 4 5 5 5 5 5 4 4 3 3 3 3 3 3 4 4 5 5 4 4 5 6 6 5 5 4 5 4 4 4 4 5 7 4 1 2 2 2 1 4 4 5 8 11 11 9 7 6 6 5 6 5 4 3 3 5 5 3 4 3 3 3 3 3 3 3 3 2 3 4 4 4 5 5 5 5 5 5 5 6
5 5 5 4 3 4 4 5 5 5 5 5 4 4 3 3 4 5 4 4 4 5 5 5 6 6 7 7 6 7 6 6 4 4 4 4 6 6 5 4 4 3 2 3 4 4 4 3 2 3 6 9 9 9 8 8 8 5 4 3 3 3 4 4 4 4 3 2 3 3 3 2 1 2 2 2 3 3 4 4 3 4 4 4 5
5 5 4 4 4 4 5 5 5 5 5 5 5 5 5 5 5 6 7 7 6 6 6 7 8 8 8 8 8 7 7 6 6 6 5 4 4 4 5 5 4 4 3 3 3 4 4 3 2 2 4 8 8 7 7 6 5 4 4 3 2 3 1 1 1 3 5 5 3 4 4 3 2 1 2 2 2 2 2 3 2 3 3 3 3
5 5 5 5 5 5 5 5 5 5 5 5 6 6 5 5 5 5 7 7 6 6 7 7 8 8 7 8 7 7 8 8 8 7 6 4 3 3 3 3 3 3 3 2 3 3 3 3 3 2 2 2 4 6 7 6 6 4 4 2 1 2 1 4 3 7 2 3 4 4 5 3 2 0 1 1 1 1 2 2 2 1 2 2 2
6 5 6 6 5 5 6 6 5 4 4 5 6 6 6 5 5 5 4 6 6 7 7 7 5 6 7 7 7 7 7 9 7 6 5 5 5 3 3 4 4 3 3 2 3 3 4 3 2 3 3 2 1 1 1 1 5 8 7 5 4 5 3 3 6 6 4 5 2 3 4 3 2 2 2 1 1 1 1 1 1 1 0 1 1
6 6 6 6 6 6 5 5 5 4 5 6 6 6 6 6 6 5 6 4 5 6 6 3 4 6 5 7 6 5 4 6 6 6 4 5 5 4 4 3 4 3 2 3 3 3 3 2 2 3 3 2 2 2 3 4 7 11 11 9 7 4 3 4 4 5 4 4 1 3 2 1 2 3 4 3 3 1 2 1 0 2 1 0 0
7 7 6 5 5 5 6 5 5 5 5 6 6 5 5 5 5 5 6 6 6 6 2 2 5 7 5 0 4 2 5 4 4 4 4 5 6 4 4 5 5 5 3 4 3 3 3 4 5 5 5 4 3 3 3 4 7 9 11 9 7 6 6 7 5 7 8 4 3 8 5 7 9 9 7 7 4 4 3 3 3 1 2 2 2
6 6 5 5 5 5 6 5 5 5 4 5 5 5 6 5 5 5 6 6 6 5 3 3 5 2 3 5 4 3 2 6 5 4 2 5 6 5 4 5 6 5 5 6 5 5 5 6 6 5 5 4 4 4 4 5 5 6 7 8 7 8 9 8 7 9 10 8 8 9 7 6 6 5 5 4 4 4 2 1 1 1 3 4 3
6 6 5 5 5 5 5 6 5 5 5 4 4 4 5 5 5 5 6 5 5 7 7 2 4 1 2 4 3 3 6 7 5 4 4 6 6 6 6 7 6 6 5 6 6 6 5 6 6 5 4 4 4 4 5 6 6 6 6 6 9 9 7 9 11 12 13 13 14 14 13 12 11 12 11 8 7 6 6 4 1 2 4 4 3
6 5 5 5 5 5 5 5 5 4 4 3 3 4 4 4 4 4 5 5 5 6 8 6 5 2 1 2 2 1 5 7 4 8 6 3 5 5 5 7 8 8 7 6 6 6 5 5 5 4 3 4 5 5 7 8 9 8 11 11 11 12 11 10 13 16 18 18 18 18 16 17 16 15 16 16 16 17 17 16 14 12 11 9 8
4 4 5 6 5 5 5 5 5 5 4 4 3 3 3 3 4 4 4 4 6 5 5 5 6 5 1 1 1 3 4 1 5 4 5 7 6 6 8 8 8 8 7 6 5 5 5 4 4 3 3 3 3 4 5 7 8 8 8 10 13 14 15 14 14 15 17 18 17 17 16 15 16 15 16 16 16 16 15 15 15 15 14 15 15
2 4 4 5 5 5 5 5 5 5 4 3 3 3 5 5 5 4 5 4 4 4 4 5 5 4 5 3 3 4 4 2 4 3 7 8 7 8 7 7 9 7 5 5 4 4 4 4 4 4 6 5 5 4 5 7 7 8 9 11 12 14 15 15 15 15 14 16 18 17 17 16 16 16 15 15 15 15 15 15 15 15 14 14 15
3 3 3 4 4 4 5 5 5 4 3 2 3 4 4 4 5 4 5 5 3 4 4 3 4 4 5 4 4 5 4 4 5 5 5 4 7 9 8 7 6 4 4 4 4 4 4 3 4 4 5 5 4 4 6 6 6 7 8 11 10 12 12 13 13 14 14 15 16 17 17 17 17 16 16 15 15 15 15 15 15 15 14 14 14
4 3 3 4 4 3 3 3 2 2 3 3 4 4 4 4 4 4 4 5 4 4 3 3 4 4 4 4 4 6 5 6 6 6 5 6 8 7 6 5 8 7 4 3 4 4 4 4 4 4 4 4 5 5 6 7 9 8 10 11 12 12 12 13 14 14 14 15 16 18 18 17 17 16 16 16 15 15 15 15 15 15 15 14 13
3 4 4 4 4 4 3 3 2 2 3 2 2 2 2 2 3 3 4 4 3 4 4 4 5 3 4 3 3 3 2 3 5 5 5 7 7 9 7 7 6 6 5 5 5 5 4 4 4 5 4 5 5 6 6 7 7 8 10 9 12 12 13 13 14 14 14 14 15 17 18 17 17 16 16 16 16 15 15 15 15 14 14 14 14
3 4 4 6 5 5 4 4 3 2 2 2 2 2 2 3 3 3 3 3 3 3 3 4 5 4 4 3 3 3 2 2 3 4 4 6 8 9 7 6 7 6 5 4 4 5 4 5 4 4 5 5 5 5 5 6 6 5 10 9 10 12 13 14 13 12 14 13 13 14 15 17 16 16 15 15 14 14 14 13 12 11 11 12 13
4 3 4 5 3 3 4 4 3 3 3 2 2 2 2 2 3 3 3 2 2 3 3 5 4 4 3 4 4 3 1 2 4 5 6 7 7 8 8 7 7 5 5 5 4 5 5 4 4 4 4 5 5 5 5 7 6 5 8 9 10 11 12 12 11 9 12 12 12 12 12 11 13 13 13 13 12 12 11 10 9 9 10 11 11
3 3 4 4 5 4 4 4 4 3 3 3 2 2 2 2 3 3 3 1 2 2 2 4 4 4 4 4 4 3 2 4 5 5 6 6 7 8 9 10 6 4 5 4 4 4 6 4 4 4 4 4 4 4 5 6 6 3 6 7 7 9 9 11 11 11 10 10 10 10 10 10 10 10 9 9 9 9 9 10 9 9 9 10 10
3 4 4 5 5 5 4 4 4 3 3 3 2 2 2 2 3 3 4 2 3 2 2 2 2 3 3 3 4 4 3 4 5 5 5 5 5 6 5 8 9 7 4 5 4 5 4 5 4 3 4 4 3 3 4 6 5 1 4 6 6 6 8 9 10 10 9 9 9 8 8 8 8 8 8 8 8 7 8 9 8 7 8 8 9
4 3 5 4 4 5 5 5 4 3 3 3 3 3 3 3 3 3 4 3 3 3 2 2 3 2 3 4 3 4 4 4 3 4 4 4 5 5 3 4 5 8 6 6 5 5 5 4 4 5 4 4 4 3 4 5 4 1 6 6 6 6 6 8 9 9 8 8 7 7 6 6 6 6 7 7 7 6 6 6 6 7 7 7 8
4 3 4 5 5 5 5 5 4 3 3 3 3 4 4 4 4 4 3 4 5 4 3 3 3 2 3 3 3 4 4 4 4 4 4 5 5 4 3 3 4 6 6 6 6 4 6 4 2 6 6 6 4 4 3 5 4 2 7 6 6 6 7 7 7 8 7 7 7 6 6 5 5 5 5 4 4 3 4 4 4 5 5 6 7
5 5 5 5 5 4 5 5 4 4 3 3 3 4 4 5 4 4 3 3 5 5 3 3 3 3 4 4 4 4 4 4 5 5 5 5 5 4 3 2 0 2 5 5 6 4 3 6 4 4 8 7 6 5 3 4 4 0 4 4 6 7 6 6 6 6 5 5 4 4 4 4 3 3 3 4 3 2 2 2 2 3 5 5 5
5 6 6 6 6 6 5 5 5 4 4 3 3 4 4 4 4 4 3 3 5 6 5 3 3 4 5 5 4 4 4 5 5 5 5 5 5 4 4 3 1 1 3 3 3 7 4 3 5 5 7 7 6 6 5 4 4 4 3 2 5 4 4 6 5 4 4 3 3 4 4 3 2 2 3 3 2 2 1 1 1 2 3 3 4
6 6 6 6 6 6 7 6 6 5 5 4 3 4 4 4 3 4 3 4 5 4 5 5 4 4 4 5 4 3 4 4 5 5 5 6 5 4 3 3 1 2 2 1 3 7 4 1 4 6 7 7 7 7 7 5 4 3 1 3 3 2 2 3 4 6 3 3 2 3 4 4 4 4 3 3 2 2 1 1 1 2 2 4 3
5 6 6 5 5 6 7 7 6 5 5 5 3 3 4 4 4 2 3 4 4 4 4 6 4 3 3 4 5 4 3 3 4 5 5 6 6 5 4 3 2 2 1 0 2 5 7 5 5 5 7 7 8 8 7 6 6 4 6 4 3 3 2 2 3 4 4 4 5 6 6 6 6 5 5 4 3 2 2 2 2 3 3 4 4
4 4 5 5 5 6 6 6 6 5 5 5 3 3 4 4 4 3 2 3 4 4 4 5 6 5 5 4 4 3 2 3 3 2 2 4 4 5 4 4 3 3 3 1 2 4 7 6 6 7 8 8 7 9 8 6 5 5 6 6 5 3 2 2 3 5 5 6 7 7 7 7 7 7 6 5 4 4 5 5 4 3 3 3 3
6 4 4 5 5 5 6 6 6 5 5 4 4 3 4 4 4 4 3 3 3 3 4 4 4 5 6 6 5 5 4 4 3 2 3 3 4 4 5 4 4 4 4 2 2 2 5 6 7 7 8 8 8 5 7 6 5 5 5 4 4 4 4 4 5 6 5 6 8 8 7 8 8 8 7 7 6 6 7 7 7 7 6 4 2
5 5 4 3 4 5 5 6 6 5 5 5 4 3 3 2 3 3 3 2 2 2 3 3 2 3 4 5 5 5 5 5 4 4 3 4 4 4 5 4 4 3 3 5 5 4 5 7 7 5 5 7 7 6 7 8 6 5 4 5 6 5 5 5 5 6 8 9 9 8 8 8 8 8 7 7 8 8 8 8 8 8 7 6 6
5 5 5 4 4 5 5 5 5 5 5 4 5 4 3 3 3 2 2 2 2 2 2 1 2 2 2 3 3 3 3 2 3 3 2 3 2 2 2 2 1 2 3 4 5 5 6 6 7 7 5 7 6 6 8 8 8 7 6 5 5 5 6 6 5 5 4 3 4 5 7 9 9 8 7 8 8 8 8 8 8 8 8 7 7
6 6 5 6 4 4 4 5 5 5 5 4 4 3 3 3 3 3 3 2 2 2 2 2 2 1 1 2 2 2 1 1 1 2 2 2 1 2 2 1 1 1 2 3 4 5 5 5 5 6 7 6 7 7 7 7 8 8 7 7 6 6 6 6 6 5 4 4 7 8 7 7 6 6 7 7 7 7 7 7 8 8 8 7 7
4 6 7 6 4 3 3 3 3 3 4 4 4 4 3 3 3 2 2 3 3 3 3 3 3 3 3 3 3 3 2 2 2 2 3 3 2 3 2 2 2 2 2 3 4 4 5 5 5 6 6 6 6 4 5 7 7 8 9 8 8 8 7 5 5 6 5 5 6 5 6 8 8 8 9 8 6 4 5 8 6 7 6 7 7
2 3 2 2 5 4 3 3 3 2 2 2 2 3 3 3 2 2 2 3 3 4 4 4 4 4 4 3 3 4 3 2 0 2 3 2 3 2 3 3 3 3 3 3 4 4 4 5 5 4 5 6 7 7 7 8 11 10 8 7 6 7 7 6 4 3 4 5 4 4 4 3 3 3 3 3 4 4 5 3 8 8 6 6 5
4 2 3 1 2 3 3 3 3 2 1 0 2 2 2 1 3 2 2 3 3 3 4 4 3 4 5 4 3 4 4 5 5 5 6 7 6 3 2 5 4 4 4 4 4 4 5 5 6 5 6 7 8 9 9 9 7 4 6 8 8 7 7 6 4 4 3 4 5 4 4 3 2 3 3 2 3 2 0 1 4 5 4 4 4
4 4 2 2 2 2 2 2 2 2 1 3 6 1 1 3 2 3 3 3 4 4 4 5 5 5 5 5 4 5 5 5 6 7 7 7 5 2 2 3 4 4 4 4 5 5 5 6 5 6 7 8 9 8 9 7 5 6 6 7 7 8 9 9 9 5 4 4 5 4 4 4 3 4 3 3 2 1 1 2 3 1 1 1 0
3 5 4 3 3 3 2 1 1 1 4 9 6 4 1 3 2 2 2 3 3 4 4 5 4 3 3 3 3 3 4 4 4 5 5 5 4 2 2 3 4 6 6 4 4 4 5 5 5 6 7 8 8 7 7 6 7 6 6 7 8 10 10 10 9 8 6 5 5 5 4 5 4 4 4 3 2 1 1 4 3 2 3 3 3
4 8 7 6 5 4 3 4 5 6 6 9 8 7 5 2 2 3 3 3 3 3 4 4 4 4 3 3 3 3 2 5 4 4 4 4 4 1 0 2 3 5 6 6 6 4 4 6 7 7 7 7 8 7 8 8 6 7 7 8 9 10 10 10 8 6 6 5 5 5 5 6 5 5 4 4 3 2 4 7 5 3 4 4 5
7 8 7 7 6 6 6 5 7 8 8 10 8 7 6 6 3 1 2 3 3 4 4 4 3 4 3 3 4 3 3 3 4 4 4 4 4 4 5 5 5 6 6 6 7 6 5 6 7 8 7 6 7 5 4 5 8 9 9 10 9 9 8 4 2 6 6 4 5 4 5 6 5 4 4 3 2 2 3 5 8 5 4 4 5
7 8 6 7 6 7 7 6 7 8 8 11 10 8 6 5 3 2 0 1 2 3 3 3 3 3 3 3 4 5 4 4 3 3 4 5 4 4 5 5 6 5 4 5 5 4 5 5 6 7 6 4 5 4 3 5 7 4 3 4 5 5 6 6 5 3 4 3 2 4 4 4 3 3 3 1 1 3 3 8 8 6 5 5 6
7 7 7 7 7 8 8 7 7 8 9 15 12 11 9 6 3 2 1 0 1 2 3 3 3 3 4 4 5 5 5 5 4 6 4 3 3 5 5 5 4 3 4 4 3 3 4 4 4 5 5 2 1 4 6 7 6 3 5 6 7 6 6 4 2 2 2 2 1 3 3 2 2 3 2 1 2 4 4 3 10 6 4 5 6
7 8 7 7 6 7 8 9 8 7 9 14 15 14 13 11 6 3 2 1 1 2 2 2 3 3 4 4 4 5 4 5 3 6 7 5 5 6 6 6 5 5 6 3 4 4 3 4 3 2 2 3 5 7 8 7 6 6 7 7 5 5 5 4 2 2 2 1 2 2 2 3 3 1 3 3 4 5 4 3 3 8 7 7 7
8 7 5 6 7 7 8 8 7 7 7 11 14 14 14 13 8 4 3 2 2 3 3 2 2 3 3 4 5 5 5 3 6 6 7 7 6 6 6 6 6 7 7 4 2 2 5 6 7 7 8 9 10 10 10 10 9 4 6 7 6 5 4 1 3 3 2 3 1 2 4 1 1 1 2 4 5 4 3 1 1 4 10 10 8
6 4 4 5 6 6 6 6 9 9 7 9 13 13 13 13 9 5 4 3 3 3 4 4 3 3 2 5 8 5 3 2 3 4 7 8 6 7 7 8 9 9 8 6 6 5 5 5 5 7 6 7 7 7 7 10 10 7 6 9 9 9 7 5 4 3 2 4 3 4 3 2 1 1 1 4 4 1 1 1 3 4 5 5 6
Wind_Direction
145 142 142 140 137 137 137 132 129 125 126 111 113 124 112 103 91 105 90 96 89 85 86 96 140 143 153 155 163 162 164 164 155 148 153 137 136 136 144 105 124 119 118 118 119 120 122 126 124 117 119 119 116 117 118 121 123 113 105 101 99 91 87 85 87 81 75 71 70 71 71 68 61 61 60 62 66 60 58 56 57 56 49 46 49
146 145 146 141 139 139 138 138 132 129 136 130 115 109 113 119 110 91 110 88 77 56 58 117 132 133 147 154 158 158 149 157 154 157 147 142 134 135 127 107 118 118 120 114 115 123 124 130 133 131 127 122 122 128 128 125 118 112 106 106 103 98 91 88 82 80 77 72 71 70 72 74 69 62 59 60 65 63 58 61 60 59 58 55 49
147 148 145 142 145 146 144 138 138 138 138 126 124 96 71 53 52 55 65 64 68 54 46 96 93 116 107 135 129 129 128 135 148 153 152 142 142 146 132 111 110 110 124 120 121 123 128 137 136 130 122 122 125 132 127 124 120 115 109 103 99 95 95 94 89 84 81 81 80 77 75 71 72 70 66 62 60 63 61 57 57 58 57 56 57
151 152 150 148 148 150 149 157 144 144 150 140 130 119 102 77 69 71 70 76 82 69 60 75 67 62 97 101 123 148 154 160 164 162 147 138 142 149 141 129 124 118 144 143 129 128 127 131 127 127 131 134 142 142 134 127 121 119 114 112 111 109 102 96 93 90 85 83 82 80 78 78 74 72 74 69 69 68 62 61 63 61 59 56 53
158 159 155 155 153 151 151 151 149 149 143 128 122 125 127 126 113 112 110 98 95 74 79 82 79 68 57 105 137 145 152 159 158 156 150 138 147 153 150 142 135 131 141 137 135 134 136 127 126 119 118 128 149 145 134 132 129 127 130 129 124 118 110 102 97 96 96 93 86 84 85 84 85 82 75 71 70 70 68 67 67 72 70 67 60
163 162 162 157 152 152 153 150 140 132 133 145 142 127 136 139 125 147 110 113 96 68 76 84 81 100 89 105 122 129 144 146 156 150 146 144 130 142 134 137 134 119 139 126 124 123 119 142 133 111 133 138 145 154 142 140 141 137 143 141 135 121 116 116 116 114 110 106 100 96 97 92 92 91 83 78 71 72 78 74 63 59 65 71 66
173 169 168 159 155 149 153 146 136 136 142 139 135 123 125 129 140 143 118 106 92 76 63 69 76 82 79 83 105 120 133 135 140 148 149 128 115 96 86 109 104 108 138 148 116 86 59 70 99 150 174 143 146 159 149 153 145 146 148 146 137 127 122 128 129 125 117 113 111 103 101 98 96 94 91 84 81 73 71 73 72 62 61 66 72
176 181 173 171 160 153 149 141 137 139 137 136 142 147 138 132 107 128 136 119 119 96 82 87 88 84 79 81 87 96 117 131 138 136 124 137 124 95 81 85 80 42 14 109 124 103 55 74 80 114 151 151 139 172 159 153 155 150 159 147 139 138 141 138 139 128 125 124 120 125 120 114 108 105 100 90 79 80 74 71 70 71 67 55 65
181 185 179 170 160 152 147 145 143 142 135 133 147 147 155 147 124 99 102 128 119 106 96 101 100 87 82 79 75 80 77 96 119 130 123 128 126 92 53 34 82 88 35 54 144 135 86 81 84 69 60 75 149 160 137 121 138 146 163 152 148 150 158 152 149 142 131 125 131 135 134 128 124 113 104 98 90 85 81 80 78 73 72 67 63
179 178 176 163 147 148 147 147 144 141 139 143 143 140 148 159 136 105 112 131 128 124 115 105 98 93 84 78 81 83 88 95 100 115 115 121 81 75 105 84 78 135 144 179 137 125 124 100 98 82 65 72 80 106 132 129 129 138 119 141 160 152 174 169 141 150 142 129 132 131 129 122 118 108 103 106 99 92 92 87 86 83 73 69 64
172 173 174 167 147 148 145 150 153 149 148 150 148 148 148 156 146 113 109 121 127 124 122 114 105 100 93 88 86 83 78 77 101 108 101 105 114 132 121 136 152 149 168 134 120 135 123 129 155 118 85 68 72 75 88 116 131 135 140 116 139 151 189 201 163 164 174 176 132 144 128 137 113 93 105 103 106 96 94 85 85 90 85 69 67
170 175 181 167 164 155 154 157 160 163 158 161 163 167 169 158 140 125 118 117 121 125 126 118 106 100 89 79 75 84 88 97 90 85 84 93 111 120 140 153 153 137 119 101 121 118 115 104 113 107 113 83 67 65 71 81 111 133 128 144 152 177 236 222 290 193 193 191 185 160 162 160 157 101 88 106 89 96 84 98 71 80 88 94 85
171 175 178 165 164 162 166 164 163 174 173 172 166 165 168 161 134 135 134 127 127 135 130 127 120 108 102 93 79 72 73 76 73 79 86 91 90 112 133 141 109 118 121 142 130 123 116 125 122 124 106 119 103 81 63 61 55 54 54 66 319 66 4 338 32 306 58 289 234 174 172 178 174 178 98 85 103 101 41 77 93 71 69 87 89
169 177 175 170 165 174 177 171 164 174 167 159 162 157 163 159 149 129 147 142 140 151 146 144 137 137 134 116 92 83 80 72 67 71 85 90 104 129 136 108 104 118 124 117 113 116 98 101 117 111 99 103 88 68 63 101 79 40 36 30 6 66 79 152 144 201 195 232 234 176 174 196 191 220 233 238 213 144 113 35 112 166 124 26 35
170 178 174 175 175 175 175 173 170 164 161 163 164 169 172 173 174 158 141 143 143 151 148 269 143 139 130 130 125 126 98 79 65 68 72 88 97 110 143 132 122 117 104 96 101 98 105 98 96 82 87 74 64 68 67 59 47 40 40 39 38 76 94 76 82 154 149 144 87 167 126 245 312 288 272 285 343 18 305 287 222 187 214 37 252
173 172 172 170 174 169 165 173 170 174 174 172 174 173 180 178 180 163 161 148 156 165 179 177 157 156 154 103 133 153 133 97 97 79 81 84 91 83 75 93 100 107 110 109 94 95 78 68 58 50 50 49 54 67 63 51 48 50 45 48 50 79 89 86 92 110 114 109 98 119 87 73 55 61 51 55 50 43 31 0 306 205 208 252 260
167 168 169 167 172 169 173 171 170 167 180 182 177 179 182 186 179 174 183 171 164 161 181 193 170 4 144 139 137 171 109 130 114 77 89 91 78 84 78 94 101 98 93 86 83 71 64 59 51 50 48 50 51 59 60 58 56 48 57 56 55 83 86 91 95 96 102 106 94 101 97 90 84 86 69 57 64 48 5 255 189 20 256 243 249
166 168 169 165 170 176 176 173 173 171 189 190 182 168 187 191 190 194 192 198 182 168 170 165 184 13 349 348 1 7 152 149 166 118 82 82 93 94 101 99 99 91 75 67 62 61 59 64 59 57 52 56 62 58 59 54 53 59 64 58 55 61 79 87 88 86 91 97 101 102 99 95 80 71 68 72 67 55 39 34 158 255 318 346 287
168 171 168 169 165 171 173 182 174 179 183 189 182 191 191 198 188 205 201 186 193 187 182 168 169 204 328 323 326 343 144 159 160 134 127 110 98 104 97 90 71 70 69 65 71 72 70 78 80 78 55 76 82 80 81 82 72 68 58 60 60 61 58 61 81 94 90 88 85 83 82 78 74 69 66 64 63 63 63 66 69 65 58 54 52
162 167 165 166 163 163 168 173 179 178 184 186 188 180 167 186 219 213 203 199 204 212 187 175 186 181 195 226 162 130 143 14 161 163 142 128 114 107 84 73 73 69 69 63 66 76 90 87 91 92 87 64 62 73 83 91 88 80 68 57 67 70 69 67 62 64 78 83 85 85 83 80 76 70 66 64 61 59 58 59 60 57 56 60 69
168 159 160 158 160 160 164 167 178 173 186 177 189 185 189 188 200 203 204 204 213 215 202 195 209 176 181 166 152 146 150 144 162 163 149 142 142 122 103 90 77 62 65 64 57 63 63 65 74 86 93 90 86 68 81 92 89 85 74 70 69 71 70 69 69 70 73 83 86 87 86 83 79 75 70 67 64 61 59 57 56 58 58 57 57
150 156 154 156 159 163 171 174 180 176 187 183 178 182 185 194 206 205 207 204 204 211 216 217 210 178 198 159 157 153 161 148 167 162 147 150 151 141 136 133 106 68 72 77 81 71 81 83 88 86 93 101 100 87 80 79 80 86 71 67 59 63 66 69 69 75 78 80 83 83 82 80 77 73 70 66 63 61 58 57 56 55 56 57 58
139 145 155 154 156 164 165 163 162 164 182 180 190 186 172 173 199 211 206 212 199 197 206 222 200 181 185 185 181 179 173 179 172 167 151 139 140 133 125 122 125 114 72 80 97 102 101 95 96 96 96 98 96 92 85 79 78 72 67 70 68 71 70 71 71 71 76 83 84 84 82 79 77 75 72 69 65 62 59 56 54 52 51 53 56
137 140 150 157 150 145 137 141 150 162 169 170 158 166 149 160 180 205 206 208 195 192 198 187 188 180 191 190 187 172 170 190 169 161 152 141 144 135 132 133 127 115 116 102 91 93 91 91 90 98 97 95 90 89 93 91 75 66 84 60 77 80 81 80 79 77 74 75 80 84 84 82 80 78 75 72 69 65 62 59 55 52 50 51 55
142 139 141 153 148 141 145 145 143 145 133 142 132 139 146 163 164 182 191 192 187 185 180 179 185 190 182 172 169 171 192 185 156 147 133 135 141 142 141 146 134 129 124 130 108 85 79 92 98 95 104 102 99 96 91 91 93 62 96 69 70 81 86 89 87 85 85 84 82 82 85 87 86 84 81 78 74 71 68 64 59 55 54 50 49
143 132 136 146 133 119 128 123 113 120 124 113 119 127 145 152 143 144 144 150 164 179 173 170 186 187 167 170 180 178 128 157 150 151 148 151 148 147 139 133 134 120 123 119 119 125 96 91 96 104 104 101 100 103 99 105 107 62 83 98 82 84 88 90 87 83 87 85 82 81 76 73 80 81 80 80 79 78 74 67 61 60 61 59 53
127 116 132 133 123 125 123 123 121 116 116 119 117 125 126 132 115 110 113 121 151 178 161 171 169 173 178 179 167 181 159 165 169 166 162 156 154 154 149 137 127 123 124 123 119 86 117 101 111 115 102 103 109 102 106 103 97 86 116 98 93 75 87 89 89 86 81 78 76 72 70 68 69 71 72 72 74 77 76 70 63 58 59 59 55
118 128 135 140 138 131 126 115 114 114 115 121 130 129 128 127 117 119 112 123 128 133 131 142 115 136 170 163 180 170 162 168 174 162 163 153 153 159 166 147 141 136 140 133 137 115 130 129 119 113 127 120 102 90 88 115 109 86 112 107 104 90 67 73 74 73 74 78 77 76 73 71 70 70 68 64 61 56 61 63 60 59 58 57 59
132 136 138 136 137 136 129 123 116 118 118 120 121 112 108 102 105 106 102 116 116 107 103 101 103 135 146 170 182 154 157 151 157 152 143 152 158 163 172 147 142 137 152 150 153 148 161 162 150 150 148 139 132 131 147 123 108 204 114 113 108 106 84 82 79 83 82 82 82 81 77 70 67 64 61 58 57 55 55 61 61 57 50 51 61
134 138 137 137 136 136 129 123 120 118 118 117 110 107 110 101 101 97 100 109 103 99 91 100 108 123 139 162 164 155 141 160 153 151 151 157 161 164 168 150 153 144 151 154 148 164 150 166 171 150 169 158 153 152 150 141 97 256 126 125 120 110 104 93 94 89 90 91 95 92 87 78 61 50 56 52 57 54 51 53 57 61 66 51 39
136 139 145 144 143 138 132 126 125 121 116 114 117 116 119 116 115 112 114 112 111 105 101 115 128 145 148 149 153 143 148 148 149 155 156 164 165 167 159 170 95 147 148 143 149 162 172 165 164 154 163 166 167 158 159 151 144 178 130 122 121 103 127 90 85 89 84 84 88 101 97 89 76 57 31 28 12 32 55 18 28 79 77 66 48
138 144 149 151 150 145 137 129 127 126 122 114 118 121 119 111 118 114 115 126 108 104 109 123 138 140 142 146 150 147 154 155 155 160 164 169 172 172 166 165 157 190 158 148 133 151 174 157 151 157 163 163 171 167 163 162 106 284 142 133 96 149 174 126 107 87 96 85 68 53 65 76 88 82 56 35 5 355 33 303 295 93 99 88 73
143 146 149 152 154 147 141 139 138 138 132 126 124 123 116 109 96 99 110 102 96 96 106 111 123 135 134 136 135 129 150 156 153 159 169 171 174 181 169 169 132 168 190 130 118 131 138 85 149 160 161 169 178 185 173 165 165 172 195 124 145 181 144 147 131 108 76 90 90 109 112 103 89 84 66 44 34 20 43 104 185 205 149 136 128
152 146 145 144 151 149 142 138 136 136 135 132 135 126 117 107 95 79 98 103 98 94 97 100 106 103 114 123 127 132 153 153 151 167 169 177 186 195 186 199 181 169 334 276 117 152 154 162 168 160 164 189 184 186 180 180 176 181 183 168 172 189 155 175 154 104 88 123 126 115 102 95 90 85 81 75 56 46 69 84 124 166 190 170 161
143 142 140 147 152 149 139 137 137 137 139 136 138 132 121 120 114 104 96 106 116 117 105 106 115 120 115 111 116 126 133 138 152 153 155 189 203 214 214 210 216 190 178 125 180 170 164 168 173 175 181 186 207 182 190 184 183 187 190 179 177 165 163 175 138 117 108 128 110 95 90 86 81 78 82 79 72 61 52 56 69 94 146 172 173
144 125 130 145 150 147 138 137 141 143 144 141 146 152 145 136 133 129 124 115 110 108 103 95 93 107 117 120 125 133 142 138 158 175 193 209 221 234 230 216 219 201 191 180 222 219 176 168 184 192 183 182 200 185 185 184 188 198 209 176 177 170 160 157 137 132 130 111 94 89 91 87 82 83 79 77 76 70 67 65 66 70 80 79 104
128 130 128 139 153 155 149 148 145 149 151 151 151 145 137 140 134 130 124 111 108 95 84 85 84 84 98 112 134 141 148 143 157 173 180 200 218 227 234 230 228 202 189 203 208 204 192 193 170 188 172 190 193 192 189 193 187 198 194 202 196 179 161 150 130 109 113 108 94 96 91 86 86 83 78 77 75 74 72 70 69 71 70 71 71
131 135 144 152 169 167 160 150 150 152 154 158 165 160 150 146 137 124 123 126 122 117 100 77 69 62 77 104 130 153 156 154 147 148 167 180 187 222 226 240 220 173 201 195 207 211 218 212 179 171 186 185 187 191 195 202 197 193 186 178 181 176 163 163 153 153 160 146 160 134 121 107 91 78 76 77 77 80 78 77 79 79 75 73 63
149 146 153 154 163 170 153 146 153 159 160 166 166 159 157 159 160 154 152 150 146 139 150 146 123 113 113 128 136 144 127 99 124 140 150 168 194 219 229 204 225 179 180 194 197 202 216 211 193 191 184 191 196 191 188 200 206 207 192 178 181 176 182 175 162 151 145 107 63 41 58 64 79 95 86 80 81 86 87 90 93 91 92 85 85
154 155 161 161 150 159 141 143 138 146 159 167 167 164 162 161 166 170 176 178 172 168 168 177 181 180 178 177 178 174 178 163 178 167 182 185 183 191 178 194 178 188 194 185 197 206 210 217 215 199 200 184 189 201 162 185 204 214 212 199 191 179 182 177 173 167 160 157 153 140 136 137 131 127 131 111 93 92 124 116 95 100 95 92 94
119 93 58 143 149 142 127 122 125 128 167 177 167 169 166 164 176 187 192 199 199 190 186 184 190 197 195 194 194 194 185 193 238 237 207 186 186 180 171 185 176 182 189 194 206 216 222 227 222 210 204 201 199 190 189 199 206 211 195 194 198 179 175 171 168 165 174 174 166 159 154 170 169 167 178 154 122 162 116 148 122 108 87 99 92
87 72 102 97 121 131 143 133 135 144 166 177 65 74 357 179 177 187 176 196 206 209 204 203 200 207 205 197 203 204 209 216 209 212 211 214 241 318 162 178 181 188 185 198 206 216 227 227 231 216 215 216 208 201 205 207 204 180 162 186 191 168 171 182 163 171 182 205 179 172 156 162 195 171 198 161 130 245 99 203 33 30 87 85 84
85 94 89 132 114 98 97 123 140 148 78 60 45 75 80 327 291 213 211 201 202 209 213 216 219 204 193 191 191 187 206 209 213 209 215 216 222 236 249 213 219 209 194 201 210 205 219 229 228 219 226 228 219 211 214 203 184 193 188 183 184 168 189 190 200 164 199 200 188 190 170 157 208 204 193 170 159 207 217 70 74 163 56 74 86
87 88 73 78 80 88 108 126 124 76 79 30 23 29 233 205 246 265 250 238 212 220 226 234 241 228 213 189 181 180 203 202 201 186 201 214 229 250 241 239 250 272 294 280 245 214 213 234 229 225 232 235 236 209 215 204 200 194 194 186 183 188 195 205 207 196 157 182 184 201 187 156 211 214 192 181 173 172 38 84 170 263 264 267 275
68 69 61 58 53 52 63 85 73 66 63 19 39 41 53 52 160 228 240 232 248 251 248 250 255 256 245 236 218 201 184 154 208 210 205 183 171 177 112 204 245 242 256 279 307 302 242 237 249 245 230 241 240 224 212 214 191 187 184 195 197 201 206 205 207 153 144 175 187 200 210 171 197 211 205 175 180 179 175 181 205 215 244 258 277
64 63 52 54 58 52 51 65 78 62 44 9 21 45 55 58 56 257 231 237 240 251 256 258 269 279 287 290 280 260 224 204 218 213 204 209 189 189 206 218 219 201 225 242 247 261 275 259 252 257 250 217 244 252 199 189 189 204 195 205 198 198 200 210 99 107 117 164 198 193 220 176 195 219 229 170 172 194 244 129 172 207 235 256 274
55 59 50 46 43 43 43 56 74 64 42 15 18 26 48 64 54 285 103 227 231 238 244 247 257 259 254 250 250 259 259 243 223 195 225 219 209 210 218 224 226 224 214 219 224 226 222 231 249 254 261 235 233 232 161 186 219 240 224 211 158 139 98 85 68 70 123 149 197 218 246 140 168 233 239 214 257 280 291 160 188 197 227 259 273
58 62 59 49 46 48 43 44 57 58 43 24 20 23 21 18 322 96 74 307 255 251 238 230 234 234 232 233 238 241 247 251 213 176 233 271 250 251 248 246 240 234 241 96 26 303 285 287 267 262 262 286 235 229 188 194 191 113 100 98 93 97 113 117 131 191 198 131 219 237 248 197 147 260 264 257 271 287 287 282 153 199 210 250 263
63 60 60 54 47 50 50 46 43 46 39 22 16 20 20 8 11 42 24 322 277 275 267 261 242 231 232 235 244 258 251 256 139 164 196 202 238 240 244 241 234 236 238 160 94 54 286 263 292 341 14 103 117 109 115 113 122 145 138 126 120 115 118 123 105 161 224 187 193 270 271 237 152 255 281 270 287 286 281 263 163 168 209 233 246
59 51 54 57 49 47 50 54 47 52 45 30 21 19 22 13 8 28 10 343 324 311 301 272 256 241 215 190 251 255 259 269 108 176 180 196 236 239 242 240 230 232 231 178 180 99 79 73 75 87 101 106 105 105 105 109 114 142 149 129 118 94 98 171 138 181 178 214 153 286 249 234 97 229 286 285 260 236 243 218 230 190 197 222 212
78 69 61 78 71 59 50 52 45 51 42 37 27 24 24 23 18 31 13 354 348 349 329 310 300 283 273 193 196 239 281 332 67 154 178 209 253 261 263 264 261 256 249 177 188 177 167 154 136 128 112 122 128 123 121 111 99 94 97 138 153 152 171 174 157 139 205 222 178 225 251 159 223 176 293 310 302 266 162 226 257 292 308 314 311